Погода в Магнитогорске

Погода в Магнитогорске : погода сейчас, прогноз погоды и архив. Всё, что Вы хотите узнать о погоде в Магнитогорске!

Хотите узнать прогноз погоды в Магнитогорске? Тогда Вам сюда: Погода в Магнитогорске

Поиск расширенной информации на нашем сайте:

Другие новости

Новости СМИ2

Главная страница сайта

Новости сайта

03.07.2017

Напоминаем, что на нашем специализированном сайте Метеоцентр.Азия вы можете получить высокодетализированные автоматические прогнозы погоды по пунктам России, СНГ и мира в авиационном формате (включающие направление и скорость ветра, видимость, явления погоды, количество и форму облачности, нижнюю и верхнюю границу облачности).

Рекомендуем: Строительные компании проектно Строительные.

Погода в Магнитогорске - сегодня

Время (UTC), дата Ветер
(°,м/с) 
Видим.   Явления Облачность Т
(°С)
Тd
(°С)
f(%) Тe
(°С)
Pmin
(гПа)
dP
(гПа)
Po
(мм)
O2
(г/м3)
Тmin Tmax R s Состояние
почвы
18 14.02.18 350 (С) 10 км    ясно 
-9.9 -17.7 53 -14  1030.2  0.8  735  309           
21 14.02.18 330 (СЗ) 10 км    ясно 
-10.7 -18.1 54 -14  1030.8  0.4  736  310           
00 15.02.18 330 (СЗ) 10 км    ясно 
-15.1 -19.4 70 -15  1032.4  0.7  736  315           
03 15.02.18 270 (З) 20000 м    9/9 600 м 
[Sc]
-16 -19.3 76 -16  1033.8  1.1  737  317  -17      20  равномерный
сухой снег
100% 
06 15.02.18 200 (Ю) 20000 м    9/9 600 м 
[Sc]
-7 -12.2 66 -7  1033.3  1.2  738  306           
09 15.02.18 360 (С) 20000 м    8/8 600 м 
[Sc]
-4.6 -11.2 60 -8  1034.3  1.4  739  304           
12 15.02.18 360 (С) 20000 м    ясно 
-4.9 -12.6 55 -4  1035.3  740  305           
15 15.02.18 тихо ()   10 км    ясно 
-14.7 -16.9 83 -15  1038.6  1.2  741  317    -4.1       
18 15.02.18 тихо ()   10 км    4/0 средняя 
[Ac trans]
-13.7 -16 83 -14  1038.9  0.5  741  316           
21 15.02.18 190 (Ю) 10 км    ясно 
-17.1 -19.3 83 -20  1040.1  0.5  741  320           
00 16.02.18 тихо ()   10 км    6/0 средняя 
[Ac trans]
-18.4 -20.9 81 -18  1041.3  0.9  742  322           
03 16.02.18 тихо ()   20000 м  {снег}  10/10 600 м 
[Sc]
-15.2 -17.4 83 -15  1041.2  0.5  742  318  -19.4    0.0  20  равномерный
сухой снег
100% 
06 16.02.18 110 (В) 20000 м  {снег}  10/10 600 м 
[Sc]
-11.3 -13.2 86 -11  1041  0.5  743  313           
09 16.02.18 330 (СЗ) 20000 м    6/0 средняя, верхняя 
[Ac trans|Ci fib]
-2.8 -11.9 49 -5  1039.3  743  303           
12 16.02.18 150 (ЮВ) 20000 м    6/0 средняя, верхняя 
[Ac trans|Ci fib]
-5.2 -11.4 62 -5  1039.7  743  306           
18 16.02.18 120 (ЮВ) 10 км    4/0 средняя 
[Ac trans]
-14.6 -16.9 83 -15  1042.3  0.3  743  318           
21 16.02.18 360 (С) 10 км    ясно 
-17 -19.4 82 -17  1043.4  0.5  744  321           
00 17.02.18 тихо ()   10 км    ясно 
-18.3 -20.6 82 -18  1044.2  0.5  744  323           
03 17.02.18 тихо ()   4000 м  дымка  ясно 
-21 -23.6 80 -21  1045.1  0.4  744  327  -21.5      20  равномерный
сухой снег
100% 
06 17.02.18 140 (ЮВ) 2000 м  дымка  ясно 
-16.3 -18.7 82 -16  1044.4  0.2  744  320  -22.8         
09 17.02.18 150 (ЮВ) 4000 м  дымка  ясно 
-9.5 -18.7 47 -9  1044.4  -0.5  744  312           
12 17.02.18 170 (Ю) 20000 м    ясно 
-9.1 -14.1 67 -11  1041.9  -0.5  744  311           
15 17.02.18 тихо ()   10 км    ясно 
-14.9 -16.7 86 -15  1042.8  -0.2  744  318    -7.4       
18 17.02.18 050 (СВ) 10 км    ясно 
-17.3 -19.7 82 -17  1042.9  -0.4  743  321           
21 17.02.18 тихо ()   10 км    ясно 
-20.3 -22.9 80 -20  1043.1  -0.4  743  325           
Время (UTC), дата Ветер
(°,м/с) 
Видим.   Явления Облачность Т
(°С)
Тd
(°С)
f(%) Тe
(°С)
Pmin
(гПа)
dP
(гПа)
Po
(мм)
O2
(г/м3)
Тmin Tmax R s Состояние
почвы

Для получения пояснительной информации подведите курсор к названию столбца.

ПОГОДА в Магнитогорске - архив

Всё, что Вы хотите узнать о погоде в Магнитогорске - удобно и подробно!

Выберите нужную дату (начиная с 1 января 2015* года) и нажмите кнопку "Найти".
Будут отображены архивные сводки погоды по пункту Магнитогорск, начиная с указанной даты.


Отображать данные в формате CSV (для использования в таблицах Excel)


Внимание! Наш архив погоды предназначен исключительно для личного некоммерческого использования в познавательных целях. Если Вам необходимы официальные справки о состоянии погоды (для производственных, юридических, коммерческих и т.п. целей), обращайтесь в органы Росгидромета.

*Примечание: данная дата относится к архиву по метеостанциям СССР (Россия, СНГ, Балтия).
Архив по метеостанциям Зарубежной Европы и Азии (кроме Китая) хранится 10 дней, по другим регионам земного шара (Китай, Африка, Америка, Австралия, Океания) - 1 день.

Магнитогорск - район местоположения метеостанции


Название, широта, долгота, высота метеостанции:
Магнитогорск 53.3°ш. 59.1°д. 384 м над ур. моря [Российская Федерация]

Дополнительная информация

В oтличие oт бoльшинства пoгoдных сайтoв мы публикуем пoдрoбную метеoинфoрмацию в детальнoм прoфессиoнальнoм фoрмате.

Характеристики температуры и влажнoсти вoздуха измеряются на высoте 2 м в тени вдали oт зданий и деревьев.
Скoрoсть ветра измеряется на высoте 10 м (на урoвне рoста челoвека скoрoсть ветра ниже в 1.5-2 раза). Если метеoстанция нахoдится в гoрoде или в лесу, тo скoрoсть ветра занижена на 2-4 м/с пo сравнению с oткрытым местoм. Скoрoсть ветра над акватoриями крупных рек и oзёр, а также на вершинах хoлмoв на 2-5 м/с выше, чем в oбычных услoвиях.
Атмoсфернoе давление в разных тoчках местнoсти мoжет значительнo oтличаться oт давления на метеoстанции, в зависимoсти oт услoвий рельефа (при пoдъёме на 10 м давление пoнижается примернo на 1 мм рт.ст.).